Year,Month,Day,Hour,Minute,Value (Times are PST for temperature in C)
2018,07,22,00,00,17.40
2018,07,22,00,01,17.40
2018,07,22,00,02,17.40
2018,07,22,00,03,17.40
2018,07,22,00,04,17.40
2018,07,22,00,05,17.40
2018,07,22,00,07,17.30
2018,07,22,00,08,17.30
2018,07,22,00,09,17.30
2018,07,22,00,10,17.30
2018,07,22,00,13,17.30
2018,07,22,00,14,17.30
2018,07,22,00,15,17.20
2018,07,22,00,16,17.20
2018,07,22,00,18,17.20
2018,07,22,00,20,17.20
2018,07,22,00,21,17.20
2018,07,22,00,23,17.10
2018,07,22,00,25,17.10
2018,07,22,00,26,17.10
2018,07,22,00,28,17.10
2018,07,22,00,30,17.00
2018,07,22,00,31,17.00
2018,07,22,00,33,16.90
2018,07,22,00,34,16.90
2018,07,22,00,35,16.90
2018,07,22,00,36,16.90
2018,07,22,00,37,16.90
2018,07,22,00,38,16.80
2018,07,22,00,39,16.80
2018,07,22,00,40,16.80
2018,07,22,00,41,16.80
2018,07,22,00,42,16.80
2018,07,22,00,43,16.80
2018,07,22,00,44,16.80
2018,07,22,00,45,16.70
2018,07,22,00,46,16.70
2018,07,22,00,47,16.70
2018,07,22,00,48,16.70
2018,07,22,00,49,16.60
2018,07,22,00,50,16.60
2018,07,22,00,51,16.60
2018,07,22,00,53,16.50
2018,07,22,00,55,16.40
2018,07,22,00,56,16.40
2018,07,22,00,58,16.40
2018,07,22,00,59,16.30
2018,07,22,01,00,16.30
2018,07,22,01,01,16.30
2018,07,22,01,02,16.30
2018,07,22,01,03,16.30
2018,07,22,01,04,16.30
2018,07,22,01,05,16.30
2018,07,22,01,06,16.20
2018,07,22,01,07,16.20
2018,07,22,01,08,16.20
2018,07,22,01,09,16.20
2018,07,22,01,10,16.20
2018,07,22,01,11,16.20
2018,07,22,01,12,16.20
2018,07,22,01,13,16.10
2018,07,22,01,15,16.10
2018,07,22,01,16,16.10
2018,07,22,01,18,16.10
2018,07,22,01,19,16.10
2018,07,22,01,20,16.00
2018,07,22,01,21,16.00
2018,07,22,01,22,16.00
2018,07,22,01,23,16.00
2018,07,22,01,25,15.90
2018,07,22,01,26,15.90
2018,07,22,01,27,15.90
2018,07,22,01,28,15.90
2018,07,22,01,30,15.90
2018,07,22,01,31,15.90
2018,07,22,01,33,15.80
2018,07,22,01,34,15.80
2018,07,22,01,35,15.80
2018,07,22,01,36,15.80
2018,07,22,01,37,15.80
2018,07,22,01,38,15.80
2018,07,22,01,39,15.80
2018,07,22,01,40,15.80
2018,07,22,01,41,15.70
2018,07,22,01,42,15.70
2018,07,22,01,43,15.70
2018,07,22,01,44,15.70
2018,07,22,01,45,15.70
2018,07,22,01,46,15.70
2018,07,22,01,47,15.70
2018,07,22,01,48,15.70
2018,07,22,01,49,15.70
2018,07,22,01,50,15.70
2018,07,22,01,51,15.60
2018,07,22,01,52,15.60
2018,07,22,01,53,15.60
2018,07,22,01,54,15.60
2018,07,22,01,55,15.60
2018,07,22,01,56,15.60
2018,07,22,01,57,15.60
2018,07,22,01,58,15.50
2018,07,22,01,59,15.50
2018,07,22,02,00,15.50
2018,07,22,02,01,15.50
2018,07,22,02,02,15.40
2018,07,22,02,03,15.40
2018,07,22,02,04,15.40
2018,07,22,02,05,15.40
2018,07,22,02,06,15.40
2018,07,22,02,07,15.40
2018,07,22,02,08,15.40
2018,07,22,02,09,15.30
2018,07,22,02,10,15.30
2018,07,22,02,12,15.30
2018,07,22,02,13,15.30
2018,07,22,02,14,15.30
2018,07,22,02,15,15.20
2018,07,22,02,16,15.20
2018,07,22,02,17,15.20
2018,07,22,02,18,15.20
2018,07,22,02,19,15.20
2018,07,22,02,21,15.20
2018,07,22,02,22,15.10
2018,07,22,02,24,15.10
2018,07,22,02,25,15.10
2018,07,22,02,26,15.10
2018,07,22,02,27,15.10
2018,07,22,02,28,15.10
2018,07,22,02,29,15.00
2018,07,22,02,30,15.00
2018,07,22,02,31,15.00
2018,07,22,02,32,14.90
2018,07,22,02,33,14.90
2018,07,22,02,34,14.90
2018,07,22,02,36,14.90
2018,07,22,02,37,14.90
2018,07,22,02,38,14.90
2018,07,22,02,39,14.80
2018,07,22,02,40,14.80
2018,07,22,02,41,14.80
2018,07,22,02,42,14.80
2018,07,22,02,43,14.80
2018,07,22,02,44,14.80
2018,07,22,02,45,14.80
2018,07,22,02,46,14.80
2018,07,22,02,47,14.80
2018,07,22,02,48,14.70
2018,07,22,02,49,14.70
2018,07,22,02,50,14.70
2018,07,22,02,51,14.70
2018,07,22,02,52,14.70
2018,07,22,02,54,14.60
2018,07,22,02,55,14.60
2018,07,22,02,56,14.60
2018,07,22,02,57,14.60
2018,07,22,02,58,14.50
2018,07,22,03,00,14.50
2018,07,22,03,01,14.50
2018,07,22,03,02,14.40
2018,07,22,03,03,14.40
2018,07,22,03,04,14.40
2018,07,22,03,05,14.40
2018,07,22,03,06,14.40
2018,07,22,03,07,14.40
2018,07,22,03,08,14.40
2018,07,22,03,09,14.40
2018,07,22,03,11,14.30
2018,07,22,03,12,14.30
2018,07,22,03,14,14.30
2018,07,22,03,15,14.30
2018,07,22,03,16,14.30
2018,07,22,03,17,14.30
2018,07,22,03,19,14.20
2018,07,22,03,20,14.20
2018,07,22,03,21,14.20
2018,07,22,03,22,14.20
2018,07,22,03,23,14.20
2018,07,22,03,24,14.20
2018,07,22,03,25,14.10
2018,07,22,03,26,14.10
2018,07,22,03,27,14.10
2018,07,22,03,28,14.10
2018,07,22,03,29,14.10
2018,07,22,03,30,14.10
2018,07,22,03,31,14.10
2018,07,22,03,32,14.10
2018,07,22,03,33,14.00
2018,07,22,03,34,14.00
2018,07,22,03,35,14.00
2018,07,22,03,36,14.00
2018,07,22,03,37,13.90
2018,07,22,03,39,13.90
2018,07,22,03,40,13.90
2018,07,22,03,41,13.90
2018,07,22,03,42,13.90
2018,07,22,03,43,13.90
2018,07,22,03,44,13.90
2018,07,22,03,45,13.90
2018,07,22,03,46,13.90
2018,07,22,03,47,13.90
2018,07,22,03,48,13.80
2018,07,22,03,49,13.80
2018,07,22,03,50,13.80
2018,07,22,03,52,13.80
2018,07,22,03,53,13.80
2018,07,22,03,54,13.80
2018,07,22,03,55,13.80
2018,07,22,03,56,13.80
2018,07,22,03,57,13.70
2018,07,22,03,58,13.70
2018,07,22,04,00,13.70
2018,07,22,04,01,13.70
2018,07,22,04,02,13.70
2018,07,22,04,04,13.70
2018,07,22,04,05,13.60
2018,07,22,04,07,13.60
2018,07,22,04,08,13.60
2018,07,22,04,09,13.60
2018,07,22,04,11,13.60
2018,07,22,04,13,13.60
2018,07,22,04,14,13.50
2018,07,22,04,15,13.60
2018,07,22,04,16,13.50
2018,07,22,04,17,13.50
2018,07,22,04,18,13.50
2018,07,22,04,19,13.50
2018,07,22,04,20,13.50
2018,07,22,04,21,13.50
2018,07,22,04,22,13.50
2018,07,22,04,23,13.40
2018,07,22,04,24,13.40
2018,07,22,04,25,13.40
2018,07,22,04,26,13.40
2018,07,22,04,28,13.40
2018,07,22,04,29,13.40
2018,07,22,04,30,13.40
2018,07,22,04,32,13.40
2018,07,22,04,33,13.40
2018,07,22,04,34,13.30
2018,07,22,04,35,13.30
2018,07,22,04,36,13.30
2018,07,22,04,37,13.30
2018,07,22,04,38,13.30
2018,07,22,04,39,13.30
2018,07,22,04,40,13.30
2018,07,22,04,41,13.30
2018,07,22,04,43,13.30
2018,07,22,04,45,13.30
2018,07,22,04,46,13.30
2018,07,22,04,47,13.30
2018,07,22,04,48,13.30
2018,07,22,04,49,13.30
2018,07,22,04,51,13.30
2018,07,22,04,52,13.30
2018,07,22,04,54,13.30
2018,07,22,04,55,13.20
2018,07,22,04,56,13.20
2018,07,22,04,57,13.20
2018,07,22,04,58,13.20
2018,07,22,04,59,13.20
2018,07,22,05,00,13.20
2018,07,22,05,01,13.20
2018,07,22,05,02,13.20
2018,07,22,05,04,13.20
2018,07,22,05,05,13.20
2018,07,22,05,06,13.20
2018,07,22,05,07,13.10
2018,07,22,05,09,13.10
2018,07,22,05,10,13.10
2018,07,22,05,11,13.10
2018,07,22,05,12,13.10
2018,07,22,05,13,13.10
2018,07,22,05,14,13.10
2018,07,22,05,15,13.10
2018,07,22,05,17,13.10
2018,07,22,05,18,13.00
2018,07,22,05,20,13.00
2018,07,22,05,21,13.00
2018,07,22,05,22,13.00
2018,07,22,05,23,12.90
2018,07,22,05,24,13.00
2018,07,22,05,25,12.90
2018,07,22,05,26,12.90
2018,07,22,05,27,12.90
2018,07,22,05,28,12.90
2018,07,22,05,29,12.90
2018,07,22,05,30,12.90
2018,07,22,05,31,12.90
2018,07,22,05,32,12.90
2018,07,22,05,33,12.90
2018,07,22,05,34,12.80
2018,07,22,05,35,12.80
2018,07,22,05,36,12.80
2018,07,22,05,37,12.80
2018,07,22,05,38,12.80
2018,07,22,05,40,12.80
2018,07,22,05,41,12.70
2018,07,22,05,43,12.70
2018,07,22,05,44,12.70
2018,07,22,05,45,12.70
2018,07,22,05,46,12.70
2018,07,22,05,47,12.70
2018,07,22,05,48,12.70
2018,07,22,05,50,12.60
2018,07,22,05,51,12.60
2018,07,22,05,52,12.60
2018,07,22,05,53,12.60
2018,07,22,05,55,12.60
2018,07,22,05,56,12.60
2018,07,22,05,57,12.60
2018,07,22,05,58,12.50
2018,07,22,05,59,12.50
2018,07,22,06,00,12.50
2018,07,22,06,01,12.50
2018,07,22,06,02,12.50
2018,07,22,06,03,12.50
2018,07,22,06,04,12.50
2018,07,22,06,05,12.50
2018,07,22,06,06,12.50
2018,07,22,06,08,12.40
2018,07,22,06,10,12.40
2018,07,22,06,11,12.40
2018,07,22,06,12,12.40
2018,07,22,06,13,12.40
2018,07,22,06,14,12.40
2018,07,22,06,15,12.40
2018,07,22,06,16,12.40
2018,07,22,06,17,12.40
2018,07,22,06,19,12.40
2018,07,22,06,20,12.50
2018,07,22,06,21,12.50
2018,07,22,06,22,12.50
2018,07,22,06,23,12.50
2018,07,22,06,25,12.60
2018,07,22,06,26,12.60
2018,07,22,06,27,12.60
2018,07,22,06,28,12.60
2018,07,22,06,34,12.70
2018,07,22,06,36,12.70
2018,07,22,06,37,12.80
2018,07,22,06,38,12.80
2018,07,22,06,39,12.80
2018,07,22,06,40,12.80
2018,07,22,06,41,12.80
2018,07,22,06,43,12.90
2018,07,22,06,44,12.90
2018,07,22,06,45,13.00
2018,07,22,06,46,13.00
2018,07,22,06,48,13.10
2018,07,22,06,49,13.10
2018,07,22,06,50,13.10
2018,07,22,06,51,13.20
2018,07,22,06,52,13.20
2018,07,22,06,53,13.20
2018,07,22,06,54,13.20
2018,07,22,06,55,13.30
2018,07,22,06,56,13.30
2018,07,22,06,57,13.30
2018,07,22,06,59,13.40
2018,07,22,07,00,13.40
2018,07,22,07,01,13.50
2018,07,22,07,02,13.50
2018,07,22,07,04,13.60
2018,07,22,07,05,13.60
2018,07,22,07,06,13.60
2018,07,22,07,07,13.70
2018,07,22,07,09,13.70
2018,07,22,07,10,13.80
2018,07,22,07,12,13.80
2018,07,22,07,13,13.90
2018,07,22,07,21,14.20
2018,07,22,07,22,14.20
2018,07,22,07,24,14.20
2018,07,22,07,26,14.30
2018,07,22,07,28,14.40
2018,07,22,07,29,14.40
2018,07,22,07,31,14.60
2018,07,22,07,33,14.70
2018,07,22,07,34,14.80
2018,07,22,07,35,14.80
2018,07,22,07,37,15.00
2018,07,22,07,38,15.10
2018,07,22,07,40,15.20
2018,07,22,07,41,15.30
2018,07,22,07,43,15.40
2018,07,22,07,44,15.50
2018,07,22,07,45,15.60
2018,07,22,07,46,15.70
2018,07,22,07,48,15.80
2018,07,22,07,49,15.90
2018,07,22,07,51,15.90
2018,07,22,07,52,16.00
2018,07,22,07,54,16.10
2018,07,22,07,55,16.20
2018,07,22,07,57,16.30
2018,07,22,07,58,16.40
2018,07,22,08,00,16.60
2018,07,22,08,01,16.70
2018,07,22,08,02,16.70
2018,07,22,08,03,16.80
2018,07,22,08,05,17.00
2018,07,22,08,06,17.10
2018,07,22,08,08,17.20
2018,07,22,08,09,17.20
2018,07,22,08,11,17.20
2018,07,22,08,12,17.30
2018,07,22,08,14,17.40
2018,07,22,08,16,17.40
2018,07,22,08,17,17.50
2018,07,22,08,18,17.60
2018,07,22,08,20,17.60
2018,07,22,08,22,17.70
2018,07,22,08,24,17.70
2018,07,22,08,25,17.80
2018,07,22,08,27,17.80
2018,07,22,08,28,17.90
2018,07,22,08,29,17.90
2018,07,22,08,30,18.00
2018,07,22,08,32,18.20
2018,07,22,08,33,18.20
2018,07,22,08,34,18.30
2018,07,22,08,35,18.30
2018,07,22,08,36,18.40
2018,07,22,08,37,18.50
2018,07,22,08,39,18.50
2018,07,22,08,40,18.60
2018,07,22,08,42,18.60
2018,07,22,08,43,18.70
2018,07,22,08,45,18.70
2018,07,22,08,47,18.90
2018,07,22,08,48,19.10
2018,07,22,08,50,19.20
2018,07,22,08,51,19.30
2018,07,22,08,53,19.30
2018,07,22,08,55,19.40
2018,07,22,08,56,19.40
2018,07,22,08,57,19.50
2018,07,22,08,58,19.60
2018,07,22,09,00,19.60
2018,07,22,09,01,19.60
2018,07,22,09,03,19.70
2018,07,22,09,04,19.80
2018,07,22,09,06,19.80
2018,07,22,09,07,19.90
2018,07,22,09,08,20.00
2018,07,22,09,10,20.10
2018,07,22,09,11,20.10
2018,07,22,09,12,20.20
2018,07,22,09,13,20.20
2018,07,22,09,15,20.20
2018,07,22,09,17,20.20
2018,07,22,09,18,20.20
2018,07,22,09,20,20.10
2018,07,22,09,21,20.10
2018,07,22,09,23,20.10
2018,07,22,09,24,20.20
2018,07,22,09,26,20.20
2018,07,22,09,28,20.30
2018,07,22,09,29,20.30
2018,07,22,09,30,20.40
2018,07,22,09,31,20.40
2018,07,22,09,32,20.50
2018,07,22,09,34,20.50
2018,07,22,09,36,20.50
2018,07,22,09,37,20.50
2018,07,22,09,38,20.60
2018,07,22,09,40,20.70
2018,07,22,09,41,20.70
2018,07,22,09,42,20.70
2018,07,22,09,44,20.80
2018,07,22,09,46,20.90
2018,07,22,09,48,21.10
2018,07,22,09,50,21.20
2018,07,22,09,51,21.30
2018,07,22,09,52,21.40
2018,07,22,09,53,21.40
2018,07,22,09,55,21.50
2018,07,22,09,57,21.60
2018,07,22,09,59,21.60
2018,07,22,10,00,21.70
2018,07,22,10,02,21.70
2018,07,22,10,03,21.70
2018,07,22,10,04,21.70
2018,07,22,10,05,21.70
2018,07,22,10,06,21.80
2018,07,22,10,07,21.90
2018,07,22,10,08,22.00
2018,07,22,10,10,22.10
2018,07,22,10,11,22.20
2018,07,22,10,12,22.20
2018,07,22,10,14,22.30
2018,07,22,10,15,22.30
2018,07,22,10,17,22.30
2018,07,22,10,18,22.40
2018,07,22,10,20,22.40
2018,07,22,10,22,22.60
2018,07,22,10,23,22.70
2018,07,22,10,25,22.80
2018,07,22,10,27,22.80
2018,07,22,10,28,22.80
2018,07,22,10,30,22.80
2018,07,22,10,31,22.80
2018,07,22,10,33,22.90
2018,07,22,10,34,23.10
2018,07,22,10,36,23.10
2018,07,22,10,37,23.10
2018,07,22,10,39,23.10
2018,07,22,10,41,23.00
2018,07,22,10,42,23.00
2018,07,22,10,43,23.10
2018,07,22,10,45,23.10
2018,07,22,10,47,23.10
2018,07,22,10,49,23.10
2018,07,22,10,51,23.20
2018,07,22,10,53,23.30
2018,07,22,10,54,23.40
2018,07,22,10,56,23.60
2018,07,22,10,57,23.80
2018,07,22,10,59,23.80
2018,07,22,11,00,23.90
2018,07,22,11,02,23.90
2018,07,22,11,04,24.10
2018,07,22,11,05,24.20
2018,07,22,11,07,24.30
2018,07,22,11,08,24.40
2018,07,22,11,10,24.30
2018,07,22,11,11,24.30
2018,07,22,11,12,24.30
2018,07,22,11,14,24.30
2018,07,22,11,16,24.30
2018,07,22,11,17,24.40
2018,07,22,11,19,24.40
2018,07,22,11,20,24.50
2018,07,22,11,22,24.60
2018,07,22,11,23,24.60
2018,07,22,11,25,24.80
2018,07,22,11,26,24.90
2018,07,22,11,27,25.10
2018,07,22,11,29,25.10
2018,07,22,11,30,25.30
2018,07,22,11,32,25.30
2018,07,22,11,34,25.60
2018,07,22,11,35,25.60
2018,07,22,11,37,25.60
2018,07,22,11,39,25.40
2018,07,22,11,40,25.40
2018,07,22,11,42,25.30
2018,07,22,11,43,25.30
2018,07,22,11,45,25.30
2018,07,22,11,47,25.30
2018,07,22,11,48,25.30
2018,07,22,11,49,25.30
2018,07,22,11,50,25.40
2018,07,22,11,51,25.40
2018,07,22,11,53,25.50
2018,07,22,11,54,25.50
2018,07,22,11,56,25.60
2018,07,22,11,57,25.60
2018,07,22,11,59,25.60
2018,07,22,12,01,25.60
2018,07,22,12,02,25.70
2018,07,22,12,03,25.70
2018,07,22,12,04,25.80
2018,07,22,12,05,25.80
2018,07,22,12,06,25.90
2018,07,22,12,07,25.90
2018,07,22,12,09,26.00
2018,07,22,12,10,26.10
2018,07,22,12,11,26.10
2018,07,22,12,12,26.20
2018,07,22,12,13,26.30
2018,07,22,12,14,26.30
2018,07,22,12,15,26.40
2018,07,22,12,16,26.50
2018,07,22,12,17,26.60
2018,07,22,12,18,26.60
2018,07,22,12,20,26.60
2018,07,22,12,21,26.60
2018,07,22,12,22,26.60
2018,07,22,12,23,26.60
2018,07,22,12,24,26.60
2018,07,22,12,25,26.60
2018,07,22,12,26,26.60
2018,07,22,12,27,26.60
2018,07,22,12,28,26.60
2018,07,22,12,29,26.60
2018,07,22,12,30,26.60
2018,07,22,12,31,26.70
2018,07,22,12,32,26.70
2018,07,22,12,34,26.70
2018,07,22,12,36,26.80
2018,07,22,12,37,26.80
2018,07,22,12,39,26.90
2018,07,22,12,40,27.10
2018,07,22,12,41,27.20
2018,07,22,12,42,27.30
2018,07,22,12,43,27.30
2018,07,22,12,45,27.40
2018,07,22,12,46,27.60
2018,07,22,12,47,27.60
2018,07,22,12,48,27.60
2018,07,22,12,50,27.70
2018,07,22,12,51,27.70
2018,07,22,12,53,27.70
2018,07,22,12,54,27.70
2018,07,22,12,55,27.70
2018,07,22,12,57,27.70
2018,07,22,12,59,27.80
2018,07,22,13,00,27.90
2018,07,22,13,02,28.00
2018,07,22,13,03,28.10
2018,07,22,13,05,28.10
2018,07,22,13,07,28.10
2018,07,22,13,08,28.20
2018,07,22,13,09,28.20
2018,07,22,13,10,28.30
2018,07,22,13,11,28.30
2018,07,22,13,13,28.40
2018,07,22,13,14,28.40
2018,07,22,13,15,28.50
2018,07,22,13,16,28.50
2018,07,22,13,17,28.50
2018,07,22,13,18,28.50
2018,07,22,13,20,28.60
2018,07,22,13,21,28.60
2018,07,22,13,23,28.70
2018,07,22,13,24,28.90
2018,07,22,13,25,29.00
2018,07,22,13,26,29.10
2018,07,22,13,27,29.20
2018,07,22,13,29,29.20
2018,07,22,13,30,29.30
2018,07,22,13,31,29.30
2018,07,22,13,32,29.40
2018,07,22,13,34,29.40
2018,07,22,13,35,29.60
2018,07,22,13,37,29.60
2018,07,22,13,38,29.70
2018,07,22,13,39,29.70
2018,07,22,13,41,29.80
2018,07,22,13,42,29.80
2018,07,22,13,43,29.80
2018,07,22,13,44,29.80
2018,07,22,13,45,29.80
2018,07,22,13,46,29.80
2018,07,22,13,47,29.80
2018,07,22,13,48,29.80
2018,07,22,13,49,29.80
2018,07,22,13,50,29.80
2018,07,22,13,52,29.80
2018,07,22,13,53,29.80
2018,07,22,13,54,29.80
2018,07,22,13,55,29.70
2018,07,22,13,57,29.70
2018,07,22,13,58,29.70
2018,07,22,13,59,29.70
2018,07,22,14,00,29.80
2018,07,22,14,01,29.80
2018,07,22,14,02,29.90
2018,07,22,14,04,29.90
2018,07,22,14,05,30.00
2018,07,22,14,06,30.10
2018,07,22,14,07,30.10
2018,07,22,14,08,30.20
2018,07,22,14,09,30.30
2018,07,22,14,10,30.30
2018,07,22,14,11,30.30
2018,07,22,14,13,30.50
2018,07,22,14,14,30.60
2018,07,22,14,15,30.70
2018,07,22,14,16,30.70
2018,07,22,14,17,30.80
2018,07,22,14,19,30.80
2018,07,22,14,21,30.90
2018,07,22,14,22,31.00
2018,07,22,14,25,31.10
2018,07,22,14,26,30.90
2018,07,22,14,27,30.80
2018,07,22,14,28,30.80
2018,07,22,14,29,30.70
2018,07,22,14,31,30.60
2018,07,22,14,32,30.60
2018,07,22,14,33,30.60
2018,07,22,14,34,30.60
2018,07,22,14,35,30.50
2018,07,22,14,36,30.50
2018,07,22,14,37,30.50
2018,07,22,14,38,30.50
2018,07,22,14,40,30.60
2018,07,22,14,42,30.60
2018,07,22,14,43,30.60
2018,07,22,14,44,30.60
2018,07,22,14,45,30.60
2018,07,22,14,46,30.60
2018,07,22,14,47,30.60
2018,07,22,14,48,30.70
2018,07,22,14,50,30.70
2018,07,22,14,51,30.70
2018,07,22,14,52,30.70
2018,07,22,14,54,30.70
2018,07,22,14,55,30.80
2018,07,22,14,57,30.80
2018,07,22,14,59,30.70
2018,07,22,15,00,30.70
2018,07,22,15,01,30.70
2018,07,22,15,02,30.70
2018,07,22,15,03,30.70
2018,07,22,15,04,30.80
2018,07,22,15,05,30.80
2018,07,22,15,06,30.90
2018,07,22,15,08,30.90
2018,07,22,15,09,31.00
2018,07,22,15,10,31.10
2018,07,22,15,11,31.10
2018,07,22,15,12,31.20
2018,07,22,15,13,31.20
2018,07,22,15,14,31.30
2018,07,22,15,15,31.40
2018,07,22,15,16,31.50
2018,07,22,15,17,31.50
2018,07,22,15,18,31.40
2018,07,22,15,19,31.30
2018,07,22,15,21,31.20
2018,07,22,15,22,31.20
2018,07,22,15,23,31.20
2018,07,22,15,24,31.20
2018,07,22,15,25,31.20
2018,07,22,15,26,31.20
2018,07,22,15,27,31.20
2018,07,22,15,28,31.30
2018,07,22,15,29,31.40
2018,07,22,15,30,31.40
2018,07,22,15,31,31.40
2018,07,22,15,32,31.40
2018,07,22,15,33,31.40
2018,07,22,15,34,31.40
2018,07,22,15,35,31.40
2018,07,22,15,37,31.40
2018,07,22,15,38,31.40
2018,07,22,15,39,31.40
2018,07,22,15,40,31.40
2018,07,22,15,41,31.40
2018,07,22,15,42,31.40
2018,07,22,15,43,31.40
2018,07,22,15,44,31.40
2018,07,22,15,45,31.40
2018,07,22,15,46,31.40
2018,07,22,15,47,31.30
2018,07,22,15,49,31.20
2018,07,22,15,50,31.20
2018,07,22,15,51,31.10
2018,07,22,15,52,31.10
2018,07,22,15,53,31.10
2018,07,22,15,54,31.10
2018,07,22,15,55,31.10
2018,07,22,15,57,31.20
2018,07,22,15,58,31.20
2018,07,22,15,59,31.20
2018,07,22,16,00,31.20
2018,07,22,16,01,31.20
2018,07,22,16,02,31.20
2018,07,22,16,03,31.20
2018,07,22,16,04,31.30
2018,07,22,16,05,31.30
2018,07,22,16,06,31.30
2018,07,22,16,07,31.30
2018,07,22,16,08,31.30
2018,07,22,16,09,31.30
2018,07,22,16,10,31.30
2018,07,22,16,12,31.30
2018,07,22,16,13,31.40
2018,07,22,16,14,31.40
2018,07,22,16,15,31.50
2018,07,22,16,16,31.50
2018,07,22,16,17,31.50
2018,07,22,16,18,31.50
2018,07,22,16,19,31.50
2018,07,22,16,20,31.60
2018,07,22,16,21,31.60
2018,07,22,16,22,31.70
2018,07,22,16,23,31.70
2018,07,22,16,24,31.70
2018,07,22,16,25,31.70
2018,07,22,16,27,31.80
2018,07,22,16,28,31.90
2018,07,22,16,29,31.90
2018,07,22,16,30,32.00
2018,07,22,16,31,32.10
2018,07,22,16,32,32.10
2018,07,22,16,33,32.10
2018,07,22,16,34,32.20
2018,07,22,16,35,32.20
2018,07,22,16,36,32.30
2018,07,22,16,37,32.30
2018,07,22,16,38,32.30
2018,07,22,16,39,32.30
2018,07,22,16,40,32.30
2018,07,22,16,42,32.20
2018,07,22,16,43,32.10
2018,07,22,16,45,32.10
2018,07,22,16,46,32.00
2018,07,22,16,48,31.90
2018,07,22,16,49,31.80
2018,07,22,16,51,31.80
2018,07,22,16,52,31.70
2018,07,22,16,54,31.60
2018,07,22,16,55,31.50
2018,07,22,16,56,31.50
2018,07,22,16,57,31.40
2018,07,22,16,58,31.40
2018,07,22,17,00,31.30
2018,07,22,17,01,31.30
2018,07,22,17,02,31.20
2018,07,22,17,03,31.20
2018,07,22,17,04,31.10
2018,07,22,17,05,31.10
2018,07,22,17,07,31.10
2018,07,22,17,09,31.00
2018,07,22,17,10,30.90
2018,07,22,17,12,30.80
2018,07,22,17,13,30.80
2018,07,22,17,14,30.70
2018,07,22,17,15,30.70
2018,07,22,17,16,30.70
2018,07,22,17,17,30.70
2018,07,22,17,19,30.70
2018,07,22,17,20,30.60
2018,07,22,17,21,30.60
2018,07,22,17,22,30.60
2018,07,22,17,23,30.60
2018,07,22,17,25,30.60
2018,07,22,17,27,30.50
2018,07,22,17,28,30.50
2018,07,22,17,29,30.50
2018,07,22,17,31,30.50
2018,07,22,17,32,30.40
2018,07,22,17,33,30.40
2018,07,22,17,34,30.40
2018,07,22,17,35,30.40
2018,07,22,17,36,30.40
2018,07,22,17,37,30.30
2018,07,22,17,38,30.30
2018,07,22,17,39,30.30
2018,07,22,17,40,30.30
2018,07,22,17,42,30.30
2018,07,22,17,43,30.30
2018,07,22,17,44,30.20
2018,07,22,17,45,30.20
2018,07,22,17,47,30.10
2018,07,22,17,48,30.10
2018,07,22,17,49,30.00
2018,07,22,17,50,29.90
2018,07,22,17,52,29.90
2018,07,22,17,53,29.90
2018,07,22,17,54,29.90
2018,07,22,17,55,29.90
2018,07,22,17,56,29.90
2018,07,22,17,57,29.90
2018,07,22,17,58,29.80
2018,07,22,17,59,29.80
2018,07,22,18,00,29.80
2018,07,22,18,01,29.80
2018,07,22,18,02,29.70
2018,07,22,18,03,29.70
2018,07,22,18,04,29.70
2018,07,22,18,05,29.70
2018,07,22,18,07,29.70
2018,07,22,18,08,29.70
2018,07,22,18,09,29.70
2018,07,22,18,10,29.70
2018,07,22,18,11,29.60
2018,07,22,18,12,29.60
2018,07,22,18,13,29.60
2018,07,22,18,14,29.70
2018,07,22,18,15,29.70
2018,07,22,18,16,29.70
2018,07,22,18,18,29.70
2018,07,22,18,19,29.70
2018,07,22,18,20,29.70
2018,07,22,18,21,29.70
2018,07,22,18,22,29.70
2018,07,22,18,24,29.70
2018,07,22,18,25,29.70
2018,07,22,18,26,29.70
2018,07,22,18,27,29.70
2018,07,22,18,28,29.70
2018,07,22,18,30,29.70
2018,07,22,18,32,29.60
2018,07,22,18,34,29.60
2018,07,22,18,35,29.60
2018,07,22,18,36,29.60
2018,07,22,18,37,29.60
2018,07,22,18,39,29.40
2018,07,22,18,40,29.40
2018,07,22,18,41,29.40
2018,07,22,18,42,29.30
2018,07,22,18,43,29.30
2018,07,22,18,44,29.30
2018,07,22,18,45,29.20
2018,07,22,18,46,29.20
2018,07,22,18,47,29.20
2018,07,22,18,48,29.10
2018,07,22,18,49,29.10
2018,07,22,18,50,29.10
2018,07,22,18,51,29.10
2018,07,22,18,53,29.00
2018,07,22,18,54,29.00
2018,07,22,18,55,29.00
2018,07,22,18,56,28.90
2018,07,22,18,57,28.90
2018,07,22,18,58,28.90
2018,07,22,18,59,28.90
2018,07,22,19,00,28.90
2018,07,22,19,01,28.80
2018,07,22,19,02,28.80
2018,07,22,19,03,28.80
2018,07,22,19,04,28.70
2018,07,22,19,05,28.70
2018,07,22,19,06,28.60
2018,07,22,19,07,28.60
2018,07,22,19,08,28.60
2018,07,22,19,09,28.60
2018,07,22,19,10,28.50
2018,07,22,19,12,28.40
2018,07,22,19,13,28.40
2018,07,22,19,14,28.40
2018,07,22,19,15,28.40
2018,07,22,19,16,28.40
2018,07,22,19,18,28.40
2018,07,22,19,19,28.40
2018,07,22,19,20,28.40
2018,07,22,19,21,28.30
2018,07,22,19,22,28.30
2018,07,22,19,23,28.30
2018,07,22,19,24,28.30
2018,07,22,19,25,28.40
2018,07,22,19,26,28.30
2018,07,22,19,27,28.30
2018,07,22,19,29,28.30
2018,07,22,19,31,28.20
2018,07,22,19,32,28.20
2018,07,22,19,33,28.20
2018,07,22,19,34,28.10
2018,07,22,19,35,28.10
2018,07,22,19,36,28.10
2018,07,22,19,37,28.00
2018,07,22,19,39,28.00
2018,07,22,19,40,27.90
2018,07,22,19,41,27.90
2018,07,22,19,42,27.90
2018,07,22,19,43,27.90
2018,07,22,19,44,27.80
2018,07,22,19,46,27.80
2018,07,22,19,47,27.80
2018,07,22,19,48,27.80
2018,07,22,19,49,27.80
2018,07,22,19,50,27.80
2018,07,22,19,51,27.70
2018,07,22,19,52,27.70
2018,07,22,19,53,27.70
2018,07,22,19,54,27.70
2018,07,22,19,55,27.70
2018,07,22,19,57,27.60
2018,07,22,19,58,27.60
2018,07,22,19,59,27.60
2018,07,22,20,00,27.60
2018,07,22,20,02,27.50
2018,07,22,20,03,27.50
2018,07,22,20,05,27.40
2018,07,22,20,07,27.40
2018,07,22,20,08,27.40
2018,07,22,20,09,27.40
2018,07,22,20,10,27.40
2018,07,22,20,11,27.40
2018,07,22,20,12,27.40
2018,07,22,20,13,27.40
2018,07,22,20,14,27.40
2018,07,22,20,15,27.30
2018,07,22,20,16,27.30
2018,07,22,20,17,27.30
2018,07,22,20,18,27.20
2018,07,22,20,19,27.20
2018,07,22,20,20,27.20
2018,07,22,20,21,27.10
2018,07,22,20,22,27.10
2018,07,22,20,23,27.10
2018,07,22,20,24,27.00
2018,07,22,20,25,27.00
2018,07,22,20,26,26.90
2018,07,22,20,27,26.90
2018,07,22,20,28,26.90
2018,07,22,20,29,26.90
2018,07,22,20,30,26.90
2018,07,22,20,31,26.90
2018,07,22,20,33,26.90
2018,07,22,20,34,26.80
2018,07,22,20,35,26.80
2018,07,22,20,36,26.80
2018,07,22,20,37,26.80
2018,07,22,20,38,26.80
2018,07,22,20,39,26.80
2018,07,22,20,40,26.70
2018,07,22,20,41,26.70
2018,07,22,20,42,26.70
2018,07,22,20,43,26.70
2018,07,22,20,45,26.60
2018,07,22,20,46,26.60
2018,07,22,20,47,26.50
2018,07,22,20,48,26.40
2018,07,22,20,50,26.40
2018,07,22,20,52,26.30
2018,07,22,20,53,26.20
2018,07,22,20,54,26.20
2018,07,22,20,55,26.20
2018,07,22,20,56,26.10
2018,07,22,20,57,26.00
2018,07,22,20,58,25.90
2018,07,22,20,59,25.90
2018,07,22,21,00,25.90
2018,07,22,21,01,25.80
2018,07,22,21,02,25.80
2018,07,22,21,03,25.70
2018,07,22,21,04,25.70
2018,07,22,21,06,25.50
2018,07,22,21,07,25.40
2018,07,22,21,08,25.40
2018,07,22,21,09,25.30
2018,07,22,21,11,25.20
2018,07,22,21,12,25.10
2018,07,22,21,14,25.00
2018,07,22,21,16,24.90
2018,07,22,21,17,24.80
2018,07,22,21,18,24.80
2018,07,22,21,19,24.80
2018,07,22,21,20,24.70
2018,07,22,21,21,24.70
2018,07,22,21,23,24.60
2018,07,22,21,24,24.50
2018,07,22,21,25,24.50
2018,07,22,21,26,24.40